Regional Weather Roundup
Issued by NWS Burlington, VT

Home | Current Version | Previous Version | Text Only | Print | Product List | Glossary On
Versions: 1 2 3 4 5 6 7 8 9 10 11 12 13 14 15 16 17 18 19 20 21 22 23 24 25 26 27 28 29 30 31 32 33 34 35 36 37 38 39 40 41 42 43 44 45 46 47 48 49 50
000
ASUS41 KBTV 240630
RWRBTV
VERMONT REGIONAL WEATHER ROUNDUP
NATIONAL WEATHER SERVICE BURLINGTON VT
200 AM EDT THU MAY 24 2018

NOTE: "FAIR" INDICATES FEW OR NO CLOUDS BELOW 12,000 FEET WITH NO
SIGNIFICANT WEATHER AND/OR OBSTRUCTIONS TO VISIBILITY.

* THESE REPORTS ARE NOT UNDER NWS QUALITY CONTROL AND/OR DO NOT
  REPORT WEATHER SUCH AS PRECIPITATION AND FOG.

VTZ001>019-240700-
_____VERMONT_____


CITY           SKY/WX    TMP DP  RH WIND       PRES   REMARKS
BURLINGTON     FAIR      56  34  43 N3        30.03S
6HR MIN TEMP:  56; 6HR MAX TEMP:  70;

MONTPELIER     FAIR      44  40  85 S5        30.05S
6HR MIN TEMP:  44; 6HR MAX TEMP:  66;

MORRISVILLE    FAIR      40  40 100 CALM      30.03R
6HR MIN TEMP:  40; 6HR MAX TEMP:  65;

ST. JOHNSBURY*   N/A     47  46  97 MISG      30.00R
6HR MIN TEMP:  47; 6HR MAX TEMP:  65;

LYNDONVILLE*   FAIR      44  40  88 CALM      30.02S
6HR MIN TEMP:  43; 6HR MAX TEMP:  62;

MIDDLEBURY*    FAIR      50  37  62 CALM      30.03
RUTLAND*       FAIR      50  44  80 CALM      30.05R
6HR MIN TEMP:  50; 6HR MAX TEMP:  68;

SPRINGFIELD    FAIR      48  46  93 CALM      30.03R
6HR MIN TEMP:  48; 6HR MAX TEMP:  72;

HIGHGATE*      FAIR      51  38  59 CALM      30.03S
6HR MIN TEMP:  45; 6HR MAX TEMP:  67;

NEWPORT*       FAIR      41  41 100 CALM      30.02S
6HR MIN TEMP:  40; 6HR MAX TEMP:  60;

BENNINGTON     FAIR      50  46  86 SE3       30.03R
6HR MIN TEMP:  50; 6HR MAX TEMP:  71;

ISLAND POND*     N/A     36 N/A N/A CALM        N/A
GALLUP MILLS*    N/A     39 N/A N/A MISG        N/A
UNION VILLAGE*   N/A     46 N/A N/A MISG        N/A
MT. MANSFIELD*   N/A     45 N/A N/A NW32        N/A

_____LAKE CHAMPLAIN_____


CITY           SKY/WX    TMP DP  RH WIND       PRES   REMARKS
COLCHESTER RF*   N/A     57  32  38 NW20        N/A
DIAMOND ISL*     N/A     63  21  20 NW1         N/A

$$

NYZ007-026>031-035-052-083-087-240700-
_____NORTHERN NEW YORK_____


CITY           SKY/WX    TMP DP  RH WIND       PRES   REMARKS
PLATTSBURGH    FAIR      58  22  24 NW9G17    30.03S
6HR MIN TEMP:  54; 6HR MAX TEMP:  69;

SARANAC LAKE   FAIR      37  36  96 CALM      30.07S
6HR MIN TEMP:  36; 6HR MAX TEMP:  64;

MASSENA        FAIR      45  41  86 SW5       30.09S
6HR MIN TEMP:  44; 6HR MAX TEMP:  69;

OGDENSBURG*    FAIR      46  41  83 CALM      30.10R
6HR MIN TEMP:  47; 6HR MAX TEMP:  69;

POTSDAM*       FAIR      43  41  93 CALM      30.09S
STARK FALLS*     N/A     45 N/A N/A CALM        N/A
WATERTOWN      FOG       41  41 100 SW5       30.10R VSB 1/4
6HR MIN TEMP:  42; 6HR MAX TEMP:  62;

FT DRUM        FAIR      51  43  73 N3        30.09R
6HR MIN TEMP:  49; 6HR MAX TEMP:  65;

ALBANY         FAIR      59  49  69 NW6       30.03R
6HR MIN TEMP:  59; 6HR MAX TEMP:  72;

GLENS FALLS    FAIR      50  46  86 W8        30.03R
6HR MIN TEMP:  47; 6HR MAX TEMP:  72;


$$
NHZ002-005-011-240700-
_____NEW HAMPSHIRE_____


CITY           SKY/WX    TMP DP  RH WIND       PRES   REMARKS
LEBANON        FAIR      48  42  80 CALM      30.01R
6HR MIN TEMP:  47; 6HR MAX TEMP:  72;

KEENE          FOG       48  46  93 CALM      30.02S VSB 3/4
6HR MIN TEMP:  49; 6HR MAX TEMP:  73;

MT WASHINGTON  PTCLDY    36  27  69 W26         N/A  WCI  23
6HR MIN TEMP:  34; 6HR MAX TEMP:  39; 6HR PCP: TRACE;

PLYMOUTH       FAIR      46  45  96 CALM      30.02R
6HR MIN TEMP:  46; 6HR MAX TEMP:  70;

WHITEFIELD     FAIR      41  40  96 CALM      30.00S FOG
6HR MIN TEMP:  42; 6HR MAX TEMP:  64;


$$

_____REGIONAL QUEBEC LOCATIONS_____


CITY           SKY/WX    TMP DP  RH WIND       PRES   REMARKS
MONTREAL       MOCLDY    55  28  35 NW5       30.05R
QUEBEC CITY    PTCLDY    43  37  81 N6        30.03R
SHERBROOKE     CLOUDY    45  41  87 SW2       30.00R

_____REGIONAL ONTARIO LOCATIONS_____


CITY           SKY/WX    TMP DP  RH WIND       PRES   REMARKS
OTTAWA         PTCLDY    54  27  35 NW5       30.10R

______KEY______
VSB  - VISIBILITY IN MILES
WCI  - WIND CHILL INDEX
HX   - HEAT INDEX
$$
NNNN




USA.gov is the U.S. government's official web portal to all federal, state and local government web resources and services.